Cloud_Cover
100 100 31 0 0 14 4 1 100 100 16 33 26 78 86 53 95 81 100 96 40 16 61 100 100 100 98 94 90 99 73 100 100 100 79 64 40 0 0 0 0 0 1 1
100 84 1 6 3 4 0 0 87 39 100 95 100 95 80 30 2 0 0 81 98 96 47 24 12 14 100 100 100 100 100 46 54 100 100 54 3 39 6 1 0 0 0 0
8 1 0 3 16 0 0 32 73 9 100 66 3 17 28 0 0 0 0 0 0 2 5 5 16 96 100 100 100 100 100 100 100 100 84 83 22 4 5 47 59 2 1 0
90 89 73 82 1 0 0 0 63 90 84 82 5 2 0 0 0 0 0 0 0 0 0 0 0 51 100 100 100 100 100 100 95 84 84 79 48 95 48 24 49 93 4 0
100 99 93 4 2 4 2 78 3 42 100 100 28 0 0 0 0 0 0 0 0 0 0 0 0 0 5 100 100 100 100 100 100 91 83 66 53 75 100 100 89 74 7 5
100 100 55 100 8 0 0 68 4 32 100 100 78 0 0 0 0 0 0 0 0 0 0 0 0 0 0 2 100 100 100 100 100 100 24 95 61 66 93 100 94 21 37 49
100 100 100 100 48 98 61 23 0 0 8 12 8 1 0 0 0 0 0 0 0 0 0 0 0 0 0 0 0 48 100 100 100 100 76 4 2 4 5 45 88 78 30 5
100 100 100 100 84 68 100 64 1 4 64 9 1 0 2 36 0 0 0 0 0 0 0 0 0 0 0 0 0 0 0 5 27 8 3 56 71 0 0 5 12 72 74 100
100 100 92 93 98 100 100 100 98 99 44 2 0 0 0 0 0 0 0 0 0 0 0 0 0 0 0 0 0 0 0 0 0 0 0 0 2 6 0 0 0 0 25 66
92 42 15 83 100 100 100 100 100 65 19 94 31 2 0 0 0 4 37 0 0 0 0 17 0 6 0 0 0 0 0 0 0 0 0 0 0 0 0 0 0 0 0 10
8 53 5 4 55 100 100 100 100 100 100 100 100 98 18 33 12 9 28 23 6 9 24 33 21 20 24 22 11 7 0 0 0 0 0 0 0 0 0 0 0 0 0 0
81 50 31 94 35 7 6 81 100 100 100 100 100 100 100 73 17 20 42 25 34 28 53 50 28 34 23 20 20 20 19 2 0 0 0 0 0 0 0 0 0 0 0 0
6 46 19 5 5 6 7 5 4 70 100 100 76 77 100 100 18 5 5 5 5 23 38 31 57 89 76 12 20 16 8 0 0 0 0 0 0 0 0 0 0 0 0 0
73 6 14 8 9 5 5 5 5 5 5 5 10 7 6 86 96 100 98 83 70 41 35 40 38 33 100 96 3 2 0 0 0 0 0 0 0 0 0 0 0 0 0 2
100 61 53 99 100 96 75 16 11 5 6 8 6 4 11 32 80 65 99 100 100 100 100 97 70 34 39 10 13 1 0 2 0 0 0 0 0 0 0 0 0 0 0 0
81 83 73 93 100 100 100 100 93 8 6 14 35 68 1 18 27 61 32 1 6 36 22 16 13 11 6 1 0 2 0 4 0 0 1 4 0 22 32 2 0 0 0 0
100 100 100 100 100 100 98 86 100 100 92 46 67 68 4 1 32 3 10 74 9 52 3 3 52 0 0 9 0 3 5 2 0 0 4 7 15 81 100 69 15 5 1 0
100 91 62 99 100 100 86 100 100 100 96 100 100 59 23 49 36 5 18 86 1 25 6 33 49 13 3 26 0 2 5 1 0 1 3 5 5 9 58 47 70 59 33 18
88 100 100 70 59 22 56 99 100 100 100 98 95 80 45 98 99 46 73 75 47 45 44 21 91 29 5 52 5 4 5 5 5 5 5 24 14 10 21 10 53 100 100 95
48 5 5 20 19 32 57 81 100 98 72 96 86 84 77 93 100 100 98 97 36 91 100 63 18 26 13 34 0 4 5 20 33 40 78 93 100 100 98 30 58 99 100 100
23 98 79 5 83 20 97 54 36 58 42 100 90 100 27 59 69 100 100 100 100 100 96 50 5 60 9 4 5 5 30 57 90 100 32 89 100 100 100 100 100 100 98 100
95 99 86 100 81 36 43 76 100 100 100 34 100 99 37 5 69 34 19 100 89 92 74 22 65 14 5 1 1 5 34 93 100 72 62 27 99 100 100 100 100 100 100 100
100 100 100 100 80 51 65 93 74 40 93 100 100 100 94 100 77 100 80 52 57 15 65 22 81 9 4 0 0 10 77 8 54 58 85 48 81 100 100 100 100 100 100 100
82 79 96 72 61 16 4 2 3 16 44 10 18 72 87 100 100 100 100 100 99 11 10 4 5 5 5 4 1 5 5 26 63 52 50 59 59 93 100 100 100 100 100 100
67 88 98 4 30 48 15 6 22 66 100 53 13 39 42 29 100 100 100 100 100 100 22 30 94 54 5 5 3 20 5 33 40 59 46 99 100 100 100 100 100 100 100 100
5 5 46 7 25 36 24 93 68 61 78 99 100 90 100 61 96 100 100 100 100 100 90 29 97 65 51 27 85 8 74 37 7 59 100 100 100 100 100 100 100 100 100 100
16 2 9 98 99 27 22 8 17 34 95 100 100 100 100 100 100 100 100 100 100 100 100 100 100 100 84 30 81 60 23 72 26 100 100 100 100 99 100 100 100 100 100 100